Location: Głuszyca
(50.6870°N, 16.3675°E)
Time: 16:59:48
(UTC+01:00)

ISS - Visible Passes

Search period start: 16 January 2019 00:00
Search period end: 26 January 2019 00:00
Orbit: 404 x 407 km, 51.6° (Epoch: 17 January)

Date Brightness Start Highest point End Pass type
(mag) Time Alt. Az. Time Alt. Az. Time Alt. Az.
23 Jan -1.8 18:36:35 10° SSW 18:38:06 18° S 18:38:06 18° S visible
24 Jan -1.6 17:45:38 10° S 17:47:25 14° SE 17:48:29 12° ESE visible
24 Jan -1.2 19:20:10 10° SW 19:21:11 18° SW 19:21:11 18° SW visible
25 Jan -3.1 18:28:25 10° SW 18:31:30 38° SSE 18:31:30 38° SSE visible
